BGA1988 EGNR-EDDH

Flight info

Callsign BGA1988
Flight time 1h 29m
Altitude 29000
Route TNT DCT NALAX DCT IRDUK DCT KONOM DCT GASTU DCT RIBSO RIBSO7A
Aircraft A337/H-SDE3GHIJ2J3J5M1RVWXY/LB2D1

Departure

Time 2026-05-07 19:59
Airport Hawarden Airport (EGNR)

Arrival

Time 2026-05-07 21:28
Airport Hamburg Helmut Schmidt Airport (EDDH)
Time Latitude Longitude Altitude Speed Heading
2026-05-07 19:41 53.17722 -2.97269 26 ft 0 kts 132°
2026-05-07 19:48 53.17729 -2.97280 26 ft 4 kts 128°
2026-05-07 19:49 53.17743 -2.97318 26 ft 4 kts 109°
2026-05-07 19:49 53.17748 -2.97361 26 ft 4 kts 87°
2026-05-07 19:49 53.17743 -2.97404 27 ft 4 kts 65°
2026-05-07 19:49 53.17730 -2.97437 27 ft 1 kts 43°
2026-05-07 19:50 53.17729 -2.97438 27 ft 0 kts 42°
2026-05-07 19:53 53.17730 -2.97437 27 ft 1 kts 42°
2026-05-07 19:53 53.17746 -2.97412 27 ft 7 kts 42°
2026-05-07 19:53 53.17754 -2.97400 26 ft 0 kts 42°
2026-05-07 19:54 53.17755 -2.97400 26 ft 0 kts 42°
2026-05-07 19:54 53.17781 -2.97398 29 ft 8 kts 348°
2026-05-07 19:55 53.17830 -2.97464 26 ft 10 kts 313°
2026-05-07 19:55 53.17876 -2.97549 30 ft 10 kts 311°
2026-05-07 19:55 53.17934 -2.97574 30 ft 11 kts 15°
2026-05-07 19:55 53.18007 -2.97502 27 ft 14 kts 38°
2026-05-07 19:56 53.18083 -2.97390 23 ft 15 kts 41°
2026-05-07 19:56 53.18166 -2.97259 20 ft 17 kts 44°
2026-05-07 19:56 53.18254 -2.97123 21 ft 17 kts 38°
2026-05-07 19:56 53.18347 -2.96994 22 ft 17 kts 41°
2026-05-07 19:57 53.18426 -2.96844 18 ft 18 kts 63°
2026-05-07 19:57 53.18506 -2.96714 15 ft 9 kts
2026-05-07 19:57 53.18514 -2.96730 15 ft 0 kts 290°
2026-05-07 19:57 53.18511 -2.96738 15 ft 1 kts 258°
2026-05-07 19:58 53.18501 -2.96769 17 ft 6 kts 232°
2026-05-07 19:58 53.18494 -2.96780 15 ft 0 kts 226°
2026-05-07 19:58 53.18412 -2.96909 22 ft 47 kts 222°
2026-05-07 19:59 53.17969 -2.97540 26 ft 120 kts 221°
2026-05-07 19:59 53.17192 -2.98675 242 ft 168 kts 220°
2026-05-07 19:59 53.16263 -3.00071 1008 ft 190 kts 223°
2026-05-07 19:59 53.15490 -3.01946 1848 ft 200 kts 249°
2026-05-07 20:00 53.15455 -3.04344 2209 ft 225 kts 288°
2026-05-07 20:00 53.16467 -3.06461 2556 ft 250 kts 325°
2026-05-07 20:00 53.18187 -3.07206 3033 ft 266 kts 358°
2026-05-07 20:00 53.20054 -3.07057 3655 ft 271 kts 359°
2026-05-07 20:01 53.21941 -3.07113 4350 ft 272 kts 353°
2026-05-07 20:01 53.23794 -3.07449 5076 ft 272 kts 348°
2026-05-07 20:01 53.25666 -3.07982 5776 ft 274 kts 346°
2026-05-07 20:01 53.27542 -3.08637 6472 ft 277 kts 344°
2026-05-07 20:02 53.29428 -3.09363 7151 ft 280 kts 343°
2026-05-07 20:02 53.31333 -3.10134 7831 ft 283 kts 343°
2026-05-07 20:02 53.33253 -3.10931 8541 ft 286 kts 343°
2026-05-07 20:02 53.35226 -3.11549 9213 ft 293 kts 358°
2026-05-07 20:03 53.37200 -3.10687 9838 ft 300 kts 31°
2026-05-07 20:03 53.38692 -3.08225 10294 ft 308 kts 62°
2026-05-07 20:03 53.39305 -3.04774 10505 ft 317 kts 92°
2026-05-07 20:03 53.38825 -3.01194 10824 ft 318 kts 120°
2026-05-07 20:04 53.37617 -2.98080 11313 ft 320 kts 130°
2026-05-07 20:04 53.36370 -2.94950 11829 ft 328 kts 120°
2026-05-07 20:04 53.35627 -2.91303 12351 ft 338 kts 102°
2026-05-07 20:04 53.35423 -2.87358 12908 ft 343 kts 93°
2026-05-07 20:05 53.35485 -2.83336 13463 ft 348 kts 88°
2026-05-07 20:05 53.35694 -2.79278 14006 ft 351 kts 85°
2026-05-07 20:05 53.35965 -2.75192 14475 ft 354 kts 85°
2026-05-07 20:05 53.36246 -2.71073 14977 ft 357 kts 85°
2026-05-07 20:06 53.36513 -2.66923 15469 ft 360 kts 86°
2026-05-07 20:06 53.36760 -2.62742 15953 ft 362 kts 86°
2026-05-07 20:06 53.36991 -2.58529 16449 ft 365 kts 86°
2026-05-07 20:06 53.37211 -2.54288 16958 ft 366 kts 87°
2026-05-07 20:07 53.37424 -2.50037 17456 ft 368 kts 87°
2026-05-07 20:07 53.37636 -2.45753 17917 ft 371 kts 87°
2026-05-07 20:07 53.37844 -2.41499 18338 ft 374 kts 87°
2026-05-07 20:07 53.38054 -2.37143 18728 ft 376 kts 87°
2026-05-07 20:08 53.38264 -2.32764 19101 ft 379 kts 87°
2026-05-07 20:08 53.38475 -2.28346 19484 ft 381 kts 87°
2026-05-07 20:08 53.38687 -2.23909 19857 ft 384 kts 87°
2026-05-07 20:08 53.38899 -2.19440 20222 ft 386 kts 87°
2026-05-07 20:09 53.39110 -2.14943 20587 ft 388 kts 87°
2026-05-07 20:09 53.39322 -2.10417 20957 ft 391 kts 87°
2026-05-07 20:09 53.39533 -2.05864 21308 ft 393 kts 87°
2026-05-07 20:10 53.39953 -1.96716 22104 ft 395 kts 87°
2026-05-07 20:10 53.40162 -1.92106 22418 ft 398 kts 87°
2026-05-07 20:10 53.40369 -1.87476 22763 ft 400 kts 87°
2026-05-07 20:10 53.40576 -1.82817 23088 ft 402 kts 87°
2026-05-07 20:11 53.40782 -1.78127 23407 ft 404 kts 87°
2026-05-07 20:11 53.40987 -1.73422 23724 ft 406 kts 87°
2026-05-07 20:11 53.41191 -1.68684 23983 ft 408 kts 87°
2026-05-07 20:11 53.41395 -1.63931 24257 ft 409 kts 87°
2026-05-07 20:12 53.41596 -1.59180 24587 ft 408 kts 87°
2026-05-07 20:12 53.41796 -1.54435 24939 ft 407 kts 87°
2026-05-07 20:12 53.41992 -1.49726 25367 ft 403 kts 88°
2026-05-07 20:12 53.42185 -1.45045 25727 ft 402 kts 88°
2026-05-07 20:13 53.42375 -1.40370 26050 ft 402 kts 88°
2026-05-07 20:13 53.42563 -1.35705 26364 ft 401 kts 88°
2026-05-07 20:13 53.42750 -1.31037 26683 ft 400 kts 88°
2026-05-07 20:13 53.42934 -1.26384 27015 ft 400 kts 88°
2026-05-07 20:14 53.43114 -1.21802 27331 ft 399 kts 88°
2026-05-07 20:14 53.43294 -1.17155 27644 ft 398 kts 88°
2026-05-07 20:14 53.43472 -1.12531 27965 ft 397 kts 88°
2026-05-07 20:14 53.43648 -1.07911 28275 ft 397 kts 88°
2026-05-07 20:15 53.43822 -1.03302 28576 ft 396 kts 88°
2026-05-07 20:15 53.43993 -0.98712 28936 ft 393 kts 89°
2026-05-07 20:15 53.44163 -0.94129 29052 ft 395 kts 89°
2026-05-07 20:16 53.44498 -0.84842 29051 ft 401 kts 89°
2026-05-07 20:16 53.44830 -0.75507 29060 ft 401 kts 89°
2026-05-07 20:17 53.45155 -0.66156 29064 ft 401 kts 89°
2026-05-07 20:17 53.45471 -0.56872 29069 ft 401 kts 89°
2026-05-07 20:18 53.45781 -0.47525 29071 ft 401 kts 89°
2026-05-07 20:18 53.46084 -0.38172 29074 ft 401 kts 89°
2026-05-07 20:19 53.46379 -0.28819 29075 ft 401 kts 89°
2026-05-07 20:19 53.46667 -0.19461 29072 ft 402 kts 89°
2026-05-07 20:20 53.46948 -0.10106 29068 ft 401 kts 89°
2026-05-07 20:20 53.47222 -0.00746 29066 ft 401 kts 89°
2026-05-07 20:21 53.47489 0.08583 29067 ft 399 kts 89°
2026-05-07 20:21 53.47744 0.17869 29066 ft 398 kts 89°
2026-05-07 20:22 53.47994 0.27162 29074 ft 398 kts 89°
2026-05-07 20:22 53.48237 0.36449 29074 ft 398 kts 90°
2026-05-07 20:23 53.48522 0.45681 29085 ft 399 kts 89°
2026-05-07 20:23 53.48886 0.54977 29082 ft 398 kts 89°
2026-05-07 20:24 53.49252 0.64220 29091 ft 396 kts 89°
2026-05-07 20:24 53.49601 0.73438 29093 ft 396 kts 89°
2026-05-07 20:25 53.49937 0.82667 29094 ft 396 kts 89°
2026-05-07 20:25 53.50264 0.91894 29094 ft 396 kts 89°
2026-05-07 20:26 53.50585 1.01125 29096 ft 396 kts 89°
2026-05-07 20:26 53.50898 1.10336 29100 ft 394 kts 89°
2026-05-07 20:27 53.51202 1.19517 29099 ft 393 kts 89°
2026-05-07 20:27 53.51500 1.28704 29102 ft 393 kts 89°
2026-05-07 20:28 53.51791 1.37877 29102 ft 393 kts 89°
2026-05-07 20:28 53.52075 1.47052 29108 ft 393 kts 89°
2026-05-07 20:29 53.52350 1.56178 29098 ft 393 kts 89°
2026-05-07 20:29 53.52620 1.65336 29107 ft 392 kts 89°
2026-05-07 20:30 53.52881 1.74475 29113 ft 391 kts 89°
2026-05-07 20:30 53.53135 1.83616 29112 ft 392 kts 89°
2026-05-07 20:31 53.53382 1.92761 29114 ft 392 kts 89°
2026-05-07 20:31 53.53623 2.01908 29113 ft 392 kts 90°
2026-05-07 20:32 53.53857 2.11048 29106 ft 391 kts 89°
2026-05-07 20:32 53.54084 2.20167 29106 ft 390 kts 89°
2026-05-07 20:33 53.54302 2.29275 29101 ft 390 kts 90°
2026-05-07 20:33 53.54513 2.38389 29101 ft 390 kts 90°
2026-05-07 20:34 53.54718 2.47503 29106 ft 390 kts 90°
2026-05-07 20:34 53.54915 2.56564 29111 ft 390 kts 90°
2026-05-07 20:35 53.55107 2.65670 29113 ft 389 kts 90°
2026-05-07 20:35 53.55293 2.74770 29096 ft 389 kts 90°
2026-05-07 20:36 53.55467 2.83863 29105 ft 389 kts 90°
2026-05-07 20:36 53.55608 2.91422 29107 ft 389 kts 90°
2026-05-07 20:37 53.55789 3.00516 29103 ft 389 kts 89°
2026-05-07 20:37 53.56117 3.09611 29108 ft 390 kts 88°
2026-05-07 20:38 53.56498 3.18705 29117 ft 389 kts 88°
2026-05-07 20:38 53.56867 3.27779 29116 ft 389 kts 88°
2026-05-07 20:39 53.57215 3.36848 29130 ft 389 kts 88°
2026-05-07 20:39 53.57551 3.45931 29126 ft 389 kts 88°
2026-05-07 20:40 53.57879 3.55012 29126 ft 389 kts 88°
2026-05-07 20:40 53.58201 3.64099 29125 ft 389 kts 88°
2026-05-07 20:41 53.58515 3.73132 29136 ft 389 kts 88°
2026-05-07 20:41 53.58824 3.82233 29124 ft 389 kts 88°
2026-05-07 20:42 53.59126 3.91336 29129 ft 389 kts 88°
2026-05-07 20:42 53.59422 4.00442 29128 ft 390 kts 88°
2026-05-07 20:43 53.59711 4.09557 29126 ft 390 kts 88°
2026-05-07 20:43 53.59992 4.18665 29130 ft 389 kts 88°
2026-05-07 20:44 53.60267 4.27761 29124 ft 389 kts 88°
2026-05-07 20:44 53.60534 4.36849 29134 ft 389 kts 89°
2026-05-07 20:45 53.60793 4.45884 29129 ft 389 kts 89°
2026-05-07 20:45 53.61047 4.54975 29124 ft 389 kts 89°
2026-05-07 20:46 53.61294 4.64067 29125 ft 389 kts 89°
2026-05-07 20:46 53.61533 4.73157 29131 ft 389 kts 89°
2026-05-07 20:47 53.61767 4.82256 29127 ft 389 kts 89°
2026-05-07 20:47 53.61993 4.91360 29124 ft 389 kts 89°
2026-05-07 20:48 53.62212 5.00458 29123 ft 389 kts 89°
2026-05-07 20:48 53.62425 5.09560 29129 ft 389 kts 89°
2026-05-07 20:49 53.62630 5.18668 29130 ft 389 kts 89°
2026-05-07 20:49 53.62830 5.27770 29132 ft 388 kts 89°
2026-05-07 20:50 53.63021 5.36821 29138 ft 386 kts 89°
2026-05-07 20:50 53.63201 5.45782 29133 ft 385 kts 89°
2026-05-07 20:51 53.63346 5.54796 29132 ft 385 kts 90°
2026-05-07 20:51 53.63434 5.63814 29131 ft 385 kts 90°
2026-05-07 20:52 53.63507 5.72827 29128 ft 385 kts 90°
2026-05-07 20:52 53.63577 5.81858 29136 ft 385 kts 90°
2026-05-07 20:53 53.63645 5.90883 29133 ft 385 kts 90°
2026-05-07 20:53 53.63708 5.99915 29130 ft 385 kts 90°
2026-05-07 20:54 53.63764 6.08952 29132 ft 385 kts 90°
2026-05-07 20:54 53.63812 6.17983 29132 ft 385 kts 90°
2026-05-07 20:55 53.63854 6.27011 29120 ft 386 kts 90°
2026-05-07 20:55 53.63888 6.36010 29122 ft 386 kts 91°
2026-05-07 20:56 53.63917 6.45053 29127 ft 386 kts 91°
2026-05-07 20:56 53.63938 6.54101 29127 ft 386 kts 91°
2026-05-07 20:57 53.63952 6.63150 29127 ft 386 kts 91°
2026-05-07 20:57 53.63960 6.72199 29128 ft 386 kts 91°
2026-05-07 20:58 53.63960 6.81257 29128 ft 388 kts 91°
2026-05-07 20:58 53.63952 6.90351 29126 ft 388 kts 91°
2026-05-07 20:59 53.63940 6.99457 29127 ft 388 kts 91°
2026-05-07 20:59 53.63921 7.08565 29125 ft 389 kts 91°
2026-05-07 21:00 53.63894 7.17643 28880 ft 383 kts 91°
2026-05-07 21:00 53.63881 7.22112 28602 ft 381 kts 91°
2026-05-07 21:00 53.63864 7.26521 28329 ft 381 kts 91°
2026-05-07 21:00 53.63844 7.30990 28043 ft 383 kts 91°
2026-05-07 21:01 53.63824 7.35500 27785 ft 386 kts 91°
2026-05-07 21:01 53.63804 7.40034 27529 ft 387 kts 91°
2026-05-07 21:01 53.63779 7.44578 27255 ft 388 kts 91°
2026-05-07 21:01 53.63752 7.49129 26993 ft 389 kts 91°
2026-05-07 21:02 53.63722 7.53687 26744 ft 389 kts 91°
2026-05-07 21:02 53.63691 7.58252 26483 ft 390 kts 91°
2026-05-07 21:02 53.63658 7.62828 26224 ft 390 kts 91°
2026-05-07 21:02 53.63624 7.67406 25970 ft 391 kts 91°
2026-05-07 21:03 53.63589 7.71991 25739 ft 392 kts 91°
2026-05-07 21:03 53.63552 7.76587 25483 ft 392 kts 91°
2026-05-07 21:03 53.63514 7.81181 25228 ft 393 kts 92°
2026-05-07 21:03 53.63473 7.85803 24994 ft 395 kts 91°
2026-05-07 21:04 53.63430 7.90441 24745 ft 396 kts 91°
2026-05-07 21:04 53.63387 7.95042 24329 ft 390 kts 91°
2026-05-07 21:04 53.63455 7.99586 23827 ft 386 kts 83°
2026-05-07 21:04 53.63914 8.03980 23470 ft 377 kts 79°
2026-05-07 21:05 53.64461 8.08250 23059 ft 369 kts 78°
2026-05-07 21:05 53.65025 8.12441 22670 ft 366 kts 77°
2026-05-07 21:05 53.65596 8.16620 22281 ft 366 kts 77°
2026-05-07 21:05 53.66171 8.20797 21886 ft 365 kts 77°
2026-05-07 21:06 53.66743 8.24953 21498 ft 363 kts 77°
2026-05-07 21:06 53.67312 8.29078 21100 ft 360 kts 77°
2026-05-07 21:06 53.67877 8.33189 20710 ft 359 kts 77°
2026-05-07 21:06 53.68438 8.37276 20316 ft 356 kts 77°
2026-05-07 21:07 53.68993 8.41334 19925 ft 354 kts 77°
2026-05-07 21:07 53.69546 8.45378 19538 ft 353 kts 77°
2026-05-07 21:07 53.70093 8.49399 19157 ft 351 kts 77°
2026-05-07 21:07 53.70637 8.53401 18763 ft 349 kts 77°
2026-05-07 21:08 53.71178 8.57390 18381 ft 348 kts 77°
2026-05-07 21:08 53.71714 8.61358 17949 ft 345 kts 77°
2026-05-07 21:08 53.72238 8.65251 17567 ft 344 kts 77°
2026-05-07 21:08 53.72766 8.69175 17187 ft 341 kts 77°
2026-05-07 21:09 53.73288 8.73071 16804 ft 339 kts 77°
2026-05-07 21:09 53.73806 8.76949 16428 ft 338 kts 77°
2026-05-07 21:09 53.74320 8.80804 16038 ft 335 kts 77°
2026-05-07 21:09 53.74830 8.84634 15660 ft 333 kts 77°
2026-05-07 21:10 53.75337 8.88455 15281 ft 332 kts 77°
2026-05-07 21:10 53.75838 8.92243 14903 ft 329 kts 77°
2026-05-07 21:10 53.76334 8.96007 14521 ft 327 kts 77°
2026-05-07 21:10 53.76828 8.99755 14153 ft 326 kts 77°
2026-05-07 21:11 53.77316 9.03478 13761 ft 323 kts 77°
2026-05-07 21:11 53.77801 9.07181 13363 ft 322 kts 77°
2026-05-07 21:11 53.78758 9.14519 12630 ft 317 kts 78°
2026-05-07 21:12 53.79230 9.18150 12260 ft 315 kts 78°
2026-05-07 21:12 53.79697 9.21754 11899 ft 313 kts 78°
2026-05-07 21:12 53.80154 9.25290 11537 ft 310 kts 78°
2026-05-07 21:12 53.80616 9.28898 11169 ft 308 kts 79°
2026-05-07 21:13 53.80812 9.32475 10930 ft 316 kts 94°
2026-05-07 21:13 53.80323 9.36103 10779 ft 313 kts 114°
2026-05-07 21:13 53.79279 9.39225 10585 ft 298 kts 123°
2026-05-07 21:13 53.78142 9.42079 10396 ft 286 kts 126°
2026-05-07 21:14 53.76869 9.44551 10163 ft 272 kts 141°
2026-05-07 21:14 53.75285 9.46056 9978 ft 255 kts 162°
2026-05-07 21:14 53.73568 9.46423 9800 ft 249 kts 184°
2026-05-07 21:14 53.71888 9.45691 9633 ft 252 kts 205°
2026-05-07 21:15 53.70322 9.44346 9442 ft 253 kts 201°
2026-05-07 21:15 53.68623 9.43795 9245 ft 249 kts 175°
2026-05-07 21:15 53.66913 9.44226 9062 ft 248 kts 167°
2026-05-07 21:15 53.65230 9.44881 8892 ft 249 kts 165°
2026-05-07 21:16 53.63551 9.45563 8710 ft 248 kts 165°
2026-05-07 21:16 53.61874 9.46247 8545 ft 248 kts 165°
2026-05-07 21:16 53.60197 9.46923 8376 ft 248 kts 165°
2026-05-07 21:16 53.58518 9.47593 8210 ft 248 kts 165°
2026-05-07 21:17 53.56842 9.48258 8026 ft 247 kts 165°
2026-05-07 21:17 53.55170 9.48921 7862 ft 247 kts 165°
2026-05-07 21:17 53.53505 9.49579 7703 ft 245 kts 165°
2026-05-07 21:17 53.51848 9.50179 7542 ft 244 kts 171°
2026-05-07 21:18 53.50177 9.49988 7340 ft 247 kts 197°
2026-05-07 21:18 53.48726 9.48407 7175 ft 248 kts 224°
2026-05-07 21:18 53.47571 9.46248 6986 ft 249 kts 230°
2026-05-07 21:18 53.46472 9.44006 6821 ft 249 kts 230°
2026-05-07 21:19 53.45372 9.41760 6640 ft 249 kts 230°
2026-05-07 21:19 53.44268 9.39530 6467 ft 248 kts 230°
2026-05-07 21:19 53.43093 9.37413 6265 ft 247 kts 218°
2026-05-07 21:19 53.41569 9.36186 6100 ft 243 kts 188°
2026-05-07 21:20 53.39929 9.36434 5929 ft 236 kts 156°
2026-05-07 21:20 53.38566 9.37842 5792 ft 233 kts 140°
2026-05-07 21:20 53.37359 9.39629 5615 ft 231 kts 130°
2026-05-07 21:20 53.36605 9.41924 5451 ft 225 kts 98°
2026-05-07 21:21 53.36774 9.44479 5303 ft 222 kts 73°
2026-05-07 21:21 53.37383 9.46858 5132 ft 224 kts 61°
2026-05-07 21:21 53.38269 9.49013 4984 ft 225 kts 53°
2026-05-07 21:21 53.39271 9.51026 4938 ft 225 kts 51°
2026-05-07 21:22 53.40285 9.53023 4937 ft 225 kts 51°
2026-05-07 21:22 53.41290 9.55031 4936 ft 225 kts 52°
2026-05-07 21:22 53.42290 9.57045 4931 ft 225 kts 52°
2026-05-07 21:22 53.43294 9.59060 4933 ft 225 kts 51°
2026-05-07 21:23 53.44296 9.61070 4954 ft 225 kts 51°
2026-05-07 21:23 53.45299 9.63082 4959 ft 225 kts 51°
2026-05-07 21:23 53.46301 9.65093 4949 ft 225 kts 51°
2026-05-07 21:23 53.47303 9.67105 4761 ft 224 kts 52°
2026-05-07 21:24 53.48303 9.69116 4448 ft 224 kts 52°
2026-05-07 21:24 53.48963 9.70441 4215 ft 223 kts 52°
2026-05-07 21:24 53.49954 9.72435 3851 ft 222 kts 52°
2026-05-07 21:24 53.50944 9.74426 3508 ft 221 kts 52°
2026-05-07 21:25 53.51926 9.76403 3201 ft 220 kts 52°
2026-05-07 21:25 53.52904 9.78373 2891 ft 220 kts 52°
2026-05-07 21:25 53.53882 9.80345 2594 ft 219 kts 52°
2026-05-07 21:25 53.54859 9.82313 2297 ft 219 kts 52°
2026-05-07 21:26 53.55832 9.84276 2000 ft 218 kts 52°
2026-05-07 21:26 53.56788 9.86204 1697 ft 211 kts 52°
2026-05-07 21:26 53.57710 9.88064 1417 ft 201 kts 52°
2026-05-07 21:26 53.58570 9.89800 1141 ft 186 kts 52°
2026-05-07 21:27 53.59364 9.91404 889 ft 171 kts 52°
2026-05-07 21:27 53.60094 9.92881 661 ft 157 kts 51°
2026-05-07 21:27 53.60763 9.94232 464 ft 144 kts 51°
2026-05-07 21:27 53.61400 9.95524 269 ft 146 kts 51°
2026-05-07 21:28 53.62044 9.96815 89 ft 140 kts 51°
2026-05-07 21:28 53.62612 9.97963 42 ft 113 kts 50°
2026-05-07 21:28 53.63041 9.98837 41 ft 76 kts 50°
2026-05-07 21:28 53.63226 9.99213 45 ft 22 kts 50°
2026-05-07 21:29 53.63290 9.99430 44 ft 20 kts 81°
2026-05-07 21:29 53.63283 9.99600 43 ft 12 kts 99°
2026-05-07 21:29 53.63280 9.99628 45 ft 0 kts 99°
2026-05-07 21:30 53.63279 9.99645 48 ft 7 kts 99°
2026-05-07 21:30 53.63269 9.99722 42 ft 2 kts 119°
2026-05-07 21:31 53.63217 9.99768 49 ft 14 kts 152°
2026-05-07 21:31 53.63128 9.99849 48 ft 15 kts 152°
2026-05-07 21:31 53.63032 9.99932 43 ft 15 kts 155°
2026-05-07 21:31 53.62960 10.00020 49 ft 10 kts 106°
2026-05-07 21:32 53.62981 10.00118 43 ft 9 kts 58°
2026-05-07 21:32 53.62988 10.00162 46 ft 1 kts 108°
2026-05-07 21:32 53.62958 10.00251 49 ft 11 kts 121°
2026-05-07 21:32 53.62950 10.00273 50 ft 0 kts 121°